Tracking 27086 objects as of 22-Mar-2023
HD Live streaming from Space Station
objects crossing your sky now

RESURS O1 DEB

Track RESURS O1 DEB now!
10-day predictions


NORAD ID: 49514
Int'l Code: 1994-074GJ
Perigee: 534.0 km
Apogee: 550.8 km
Inclination: 97.9 °
Period: 95.3 minutes
Semi major axis: 6913 km
RCS: Unknown
Launch date: November 4, 1994
Source: Commonwealth of Independent States (former USSR) (CIS)
Launch site: TYURATAM MISSILE AND SPACE COMPLEX (TTMTR)

Note: This is SATELLITE DEBRIS
Your satellite tracking list
Your tracking list is empty




NASA's NSSDC Master Catalog

Two Line Element Set (TLE):
1 49514U 94074GJ  23077.97312735  .00127142  00000-0  76206-2 0  9993
2 49514  97.8762 134.0613 0012151 216.0571 143.9839 15.10312081 83992
Source of the keplerian elements: AFSPC